Temperature
11 11 11 11 11 11 11 11 11 11 11 11 11 11 11 12 11 11 11 11 11 11 11 11 11 11 11 11 11 11 11 11 11 11 11 11 11 11 11 11 11 10 10
10 10 10 10 11 11 11 11 11 11 11 11 11 11 11 11 11 11 11 11 11 11 11 11 11 11 11 11 11 11 11 11 10 10 11 11 11 11 10 10 10 10 10
10 10 10 10 10 10 10 10 10 10 10 10 10 10 10 11 11 11 11 11 11 11 11 11 10 10 11 10 10 10 10 10 10 10 10 10 10 10 10 10 10 10 10
10 10 10 10 10 10 10 10 10 10 10 10 10 10 10 10 10 10 10 10 10 10 10 10 10 10 10 10 10 10 10 10 10 10 10 10 10 10 10 10 9 9 9
9 9 9 9 9 9 9 9 9 9 9 9 10 10 10 10 10 10 10 9 10 10 10 10 10 10 10 10 9 9 9 9 9 9 9 9 9 9 9 9 9 9 9
9 9 9 9 9 9 9 9 9 9 9 9 9 9 9 9 9 9 9 9 9 9 9 9 9 9 9 9 9 9 9 9 9 9 9 9 9 9 9 9 9 9 8
9 9 8 8 8 8 8 8 8 8 8 8 8 9 9 9 9 9 9 9 9 9 9 9 9 9 9 9 8 8 8 8 9 8 8 9 8 8 8 8 8 8 8
8 8 8 8 8 8 8 8 8 8 8 8 8 8 8 8 8 8 8 8 8 8 9 9 9 9 9 9 8 8 8 8 8 8 8 8 8 8 8 8 8 8 8
8 8 8 8 8 8 8 8 8 8 8 8 8 8 7 7 7 8 8 8 8 8 8 8 8 8 8 8 8 8 8 8 8 8 8 8 8 8 8 8 8 7 7
8 7 7 7 7 7 8 8 7 7 7 7 7 7 7 7 7 7 7 7 8 8 8 8 8 8 8 8 8 7 7 7 7 7 7 7 7 7 7 7 7 7 7
7 7 7 7 7 7 7 7 7 7 7 7 7 7 7 7 7 7 7 7 7 7 7 7 7 7 7 7 7 7 7 7 7 7 7 7 7 7 7 7 7 7 7
7 7 7 7 7 7 7 7 7 7 7 7 7 7 7 7 7 7 7 7 7 7 7 7 7 7 7 7 7 7 6 6 6 6 6 6 6 6 6 6 6 6 6
6 6 6 6 6 6 6 6 6 6 6 6 6 6 6 6 6 6 6 6 6 6 6 7 7 7 7 7 6 6 6 6 6 6 6 6 6 6 6 6 6 6 6
6 6 6 6 6 6 6 6 6 6 6 6 6 6 6 6 6 6 6 6 5 5 5 6 6 6 6 6 6 6 6 6 6 5 5 5 6 6 5 6 6 6 6
5 5 5 5 5 5 5 5 5 5 5 5 5 5 5 5 5 5 5 5 5 5 5 5 6 6 6 6 6 5 5 5 5 5 5 5 5 5 5 5 5 5 5
5 5 5 5 5 5 5 5 5 5 5 5 5 5 5 5 5 5 5 5 5 5 4 5 5 5 5 5 5 5 5 5 5 5 5 5 5 5 5 5 5 5 5
4 4 4 4 4 4 4 4 4 4 4 4 4 4 4 4 4 4 4 4 4 4 4 4 5 4 4 5 5 4 4 4 4 4 4 4 4 4 4 4 4 4 4
4 4 4 4 4 4 4 4 4 4 4 4 4 4 4 4 4 4 4 4 4 4 4 4 4 4 4 4 4 4 4 4 4 4 4 4 4 4 4 4 4 4 4
3 3 3 3 3 3 3 3 3 3 3 3 3 3 3 3 3 3 3 3 3 3 3 3 3 3 3 3 3 3 3 3 3 3 3 3 3 3 3 3 3 3 3
3 3 3 3 3 3 3 3 3 3 3 3 3 3 3 3 3 3 3 3 3 3 3 3 3 3 3 3 3 3 3 3 3 3 3 3 3 3 3 3 3 3 3
2 2 2 2 2 2 2 2 2 2 2 2 2 2 3 3 3 2 2 3 2 2 2 2 2 2 2 2 2 3 3 3 3 2 2 2 2 2 2 2 2 2 2
1 1 2 2 2 2 2 2 2 2 2 2 2 2 2 2 2 2 2 2 2 2 2 2 2 2 2 2 2 2 2 2 2 2 2 2 2 2 2 2 2 2 2
1 1 1 1 1 1 1 1 1 1 1 1 2 2 2 2 2 2 2 2 1 1 1 1 1 1 1 1 1 1 1 1 1 1 1 1 1 1 1 1 1 1 1
0 0 1 1 1 1 0 1 1 1 1 1 1 1 1 1 1 1 1 1 1 1 1 1 1 1 1 1 0 0 0 0 0 0 0 -0 0 1 1 1 0 0 0
-0 -0 -0 0 0 0 0 0 0 0 0 0 0 0 0 1 1 0 0 0 0 0 0 0 0 0 -0 -0 -0 -0 -0 -0 -0 -0 -0 -1 -0 -0 -0 0 -0 -0 -0
-1 -1 -1 -1 -0 -0 -0 -0 -0 -0 -0 -0 -0 -0 -0 -0 -0 -0 -0 -0 -0 -0 -0 -0 -0 -0 -1 -1 -1 -1 -1 -1 -1 -1 -1 -1 -1 -1 -1 -1 -1 -1 -1
Wind_Speed
2 2 3 3 3 4 4 4 4 5 4 4 4 4 4 4 4 4 4 5 5 6 6 7 8 8 8 8 9 9 9 9 9 9 9 9 8 8 9 9 9 9 9
3 3 2 2 2 3 4 4 4 4 4 4 4 4 3 4 4 4 4 4 5 5 5 6 7 7 8 8 8 8 8 8 8 8 8 8 8 8 9 9 8 8 8
4 3 2 2 2 3 4 5 5 4 3 3 3 3 3 3 4 4 4 4 4 4 4 5 5 6 7 8 8 8 8 8 8 8 7 7 8 8 8 8 8 7 7
5 4 3 2 2 3 4 3 3 3 3 3 2 2 2 3 3 3 3 3 3 3 3 4 4 5 6 7 7 7 7 7 7 7 7 7 7 7 8 7 7 6 6
4 4 3 2 3 3 3 3 3 3 3 3 2 2 2 2 2 3 3 3 3 3 3 4 4 4 5 6 6 6 6 7 7 7 7 6 6 7 7 6 6 5 5
4 4 3 3 3 3 2 2 3 2 3 3 3 3 2 2 2 2 1 2 2 3 3 4 3 3 4 5 5 6 6 7 7 7 7 6 6 6 6 6 5 5 5
4 4 3 3 3 3 3 3 3 3 2 2 2 2 2 2 2 1 1 1 2 2 3 3 4 3 3 3 4 5 6 7 8 7 7 6 6 6 7 6 5 4 4
3 3 3 2 2 3 3 3 3 2 1 1 2 2 1 1 2 2 1 1 1 2 2 2 3 3 2 2 3 4 5 6 7 7 7 7 7 7 7 7 6 5 4
3 3 3 2 2 3 3 4 4 3 2 1 1 2 2 2 1 1 1 0 0 1 1 1 1 2 2 3 2 3 5 5 6 7 7 7 8 8 7 8 7 6 6
2 2 3 2 2 2 3 4 3 3 4 3 1 1 1 2 2 1 1 1 1 1 1 1 1 2 2 3 3 2 3 4 5 7 7 7 7 8 8 7 8 8 7
1 1 2 2 2 2 2 3 3 3 3 3 2 1 1 1 1 2 2 2 2 2 1 2 2 3 4 4 4 4 4 4 5 5 6 7 8 8 9 8 8 8 8
1 1 1 1 1 2 2 3 3 4 3 3 2 2 2 2 2 2 2 2 3 2 2 2 3 4 5 6 6 5 5 5 5 6 7 7 8 8 8 8 7 8 8
0 1 1 1 1 1 1 2 2 3 3 3 3 2 2 2 2 2 2 2 2 2 2 2 3 5 5 6 6 6 6 6 6 7 8 8 8 7 7 7 7 7 8
1 1 1 1 1 1 1 1 2 2 2 2 3 2 2 2 2 2 2 2 1 2 2 3 2 4 6 6 7 6 6 7 7 7 8 8 7 7 6 7 7 6 6
0 1 1 1 1 1 1 2 1 2 2 2 2 3 2 2 2 2 2 3 3 3 4 3 2 2 5 6 6 6 7 8 8 8 8 7 6 7 7 8 8 7 7
1 1 1 0 0 1 1 2 1 2 2 2 2 2 2 1 2 2 2 2 2 3 3 3 3 2 2 4 6 6 7 8 9 9 9 7 7 8 8 9 8 8 7
1 1 1 1 1 1 0 1 1 2 2 2 2 2 2 2 2 2 2 2 2 2 3 3 2 1 1 2 3 5 6 7 8 9 9 8 7 8 9 9 9 9 8
1 1 1 1 1 1 0 1 2 2 2 2 2 2 2 2 3 2 2 3 2 2 3 3 2 2 2 2 2 3 4 5 7 8 9 8 8 8 9 9 10 10 9
1 1 1 1 1 0 0 1 2 2 3 3 3 3 3 3 3 3 3 3 3 2 2 3 3 1 1 1 1 2 2 3 5 7 8 9 8 9 9 9 9 9 9
0 1 0 0 0 0 0 1 1 2 2 2 2 3 3 3 4 4 3 4 3 3 2 2 2 1 1 1 0 1 2 2 3 4 7 7 8 9 9 9 9 9 10
1 0 0 0 0 0 0 1 1 1 2 2 2 2 2 3 3 3 3 3 3 3 2 2 2 1 2 1 2 2 3 2 3 3 2 4 5 5 7 9 9 10 10
1 1 0 0 1 1 1 1 1 1 1 2 2 2 2 3 3 4 4 3 4 4 4 3 3 3 4 3 2 2 2 1 3 2 2 3 3 3 6 8 8 9 9
1 1 1 1 1 1 1 1 1 1 1 2 2 2 2 2 2 2 2 2 3 4 5 5 5 5 4 4 3 3 3 3 4 2 2 3 1 3 6 7 8 9 9
1 1 1 1 1 2 2 1 1 1 0 1 1 2 2 2 2 2 2 1 2 2 4 4 4 4 4 4 4 4 4 2 1 1 2 3 2 3 3 6 8 9 9
1 1 1 1 1 2 3 2 1 0 0 1 1 1 2 2 2 2 2 2 2 2 3 3 3 3 3 3 3 2 1 1 3 2 2 2 2 2 2 3 6 7 8
1 2 2 2 2 2 3 2 1 0 1 1 2 2 2 2 2 3 3 3 3 3 2 2 2 2 2 2 3 3 3 3 2 3 2 2 1 0 2 2 2 4 6
Wind_Direction
124 120 111 108 115 121 120 117 117 113 107 100 103 111 111 108 106 106 117 128 139 140 145 151 151 149 147 145 143 140 137 138 133 130 131 127 123 126 128 130 127 122 117
144 136 121 112 119 126 125 122 119 114 107 104 91 93 100 104 101 96 110 121 127 136 146 148 155 154 152 150 152 151 149 146 143 137 136 138 135 131 131 129 129 128 124
148 143 130 119 126 127 125 116 109 104 100 96 89 82 81 89 96 94 103 112 127 136 144 145 147 154 158 159 159 158 156 156 153 149 146 149 146 143 138 134 131 134 135
150 142 134 122 129 125 121 125 122 112 102 100 92 78 67 71 81 89 94 105 117 132 139 136 138 147 152 161 162 160 159 163 163 162 160 156 156 153 150 145 145 142 144
145 140 136 135 131 121 119 134 125 127 125 111 98 77 62 70 75 87 85 95 114 127 132 127 129 149 156 160 163 164 167 171 169 171 169 162 165 166 162 162 160 156 151
132 128 125 123 128 128 124 129 131 117 126 127 102 68 47 57 72 89 82 85 101 119 125 122 122 139 160 172 179 179 180 180 180 181 179 177 180 181 181 178 178 168 159
127 126 126 128 137 142 147 141 127 121 122 133 104 69 39 45 59 52 54 80 85 95 107 111 122 130 155 183 193 196 194 195 192 191 188 191 194 195 192 190 189 184 180
134 138 135 154 157 141 140 146 138 136 139 130 124 123 86 14 14 0 45 97 98 100 101 113 122 126 144 171 193 205 203 206 205 204 204 207 208 207 202 195 191 186 180
135 139 150 152 158 161 170 170 165 155 161 174 127 150 158 203 275 348 12 21 27 104 145 152 147 157 173 174 190 195 204 210 217 217 214 213 213 211 210 209 201 203 201
120 130 138 146 156 172 180 184 179 171 163 173 147 53 139 156 166 220 329 331 299 244 212 231 220 222 210 204 203 206 214 217 224 228 222 221 220 217 217 216 210 208 207
100 118 134 143 156 176 184 182 182 176 173 178 172 158 100 78 136 165 229 277 304 282 245 230 225 232 230 224 216 218 232 236 241 246 246 241 236 229 228 229 224 220 218
124 87 116 125 146 169 184 190 188 182 182 179 180 173 172 167 178 171 198 238 258 281 280 244 234 230 231 228 224 227 233 237 247 257 263 255 248 242 238 233 237 232 228
162 205 125 134 144 171 175 175 179 185 183 183 192 200 191 188 170 167 174 211 252 280 287 265 237 232 231 227 228 232 234 239 249 259 264 262 255 247 242 240 244 244 235
195 180 163 157 142 152 154 154 171 181 184 193 202 197 193 190 176 173 176 176 231 274 282 268 268 237 232 230 235 238 239 242 246 255 261 259 253 242 238 241 245 244 241
105 117 140 149 143 131 147 160 169 189 189 200 203 200 202 198 187 182 173 183 186 230 253 249 255 254 237 234 237 236 239 246 249 251 255 257 245 238 237 242 241 237 237
66 102 105 121 120 112 156 165 180 192 189 208 201 191 200 202 186 181 180 199 200 207 238 245 244 274 254 245 246 239 243 252 253 254 253 251 244 241 241 242 239 239 239
79 93 113 97 85 66 111 162 191 194 200 211 205 199 210 200 193 196 191 194 205 202 235 270 279 289 253 254 260 248 251 252 252 254 250 246 246 242 238 238 238 237 239
59 83 99 102 82 49 44 195 209 210 211 222 224 211 224 210 207 204 201 207 214 214 219 250 267 264 261 261 250 250 256 254 252 255 251 245 245 241 235 236 237 240 241
56 52 62 89 93 47 303 257 222 218 216 224 223 221 225 210 219 217 211 213 217 220 219 228 253 266 278 304 302 287 271 266 264 259 255 248 244 243 238 238 239 240 239
111 78 70 99 154 199 245 253 240 233 226 231 231 226 224 218 222 217 217 217 210 208 211 224 241 258 267 281 268 271 286 283 281 270 257 252 249 247 246 243 241 243 241
16 10 341 328 311 239 267 288 240 235 234 235 242 240 235 231 227 218 217 212 205 212 215 226 240 256 251 249 241 231 245 280 283 253 259 257 248 251 252 254 249 248 246
12 25 275 265 288 305 323 307 276 237 239 232 243 255 254 243 240 230 222 212 204 211 218 223 234 240 245 238 230 222 214 255 273 246 220 267 236 248 255 254 253 253 253
356 353 328 323 300 298 307 262 255 249 244 252 241 248 266 270 248 226 224 228 230 228 220 218 226 236 238 225 206 217 221 232 244 232 207 258 237 249 254 256 261 260 256
352 341 339 324 313 319 342 322 303 264 254 285 251 231 233 248 240 209 202 211 239 252 244 233 231 239 237 223 210 217 223 233 284 271 195 242 253 255 269 265 263 254 247
351 332 317 340 334 326 350 360 356 269 302 305 303 284 243 237 245 210 192 211 251 271 274 251 252 260 253 233 206 186 190 214 256 256 213 221 246 269 277 268 265 256 252
325 338 346 349 334 319 337 351 357 242 293 298 308 307 299 283 268 233 209 215 244 262 266 289 301 305 291 249 218 211 209 219 239 246 215 205 229 248 289 276 265 272 268
Height
1521 1522 1523 1525 1526 1527 1529 1530 1532 1533 1535 1537 1539 1540 1542 1543 1545 1547 1548 1550 1551 1553 1554 1555 1556 1557 1558 1559 1560 1561 1562 1563 1564 1565 1566 1567 1568 1569 1570 1570 1571 1572 1572
1519 1520 1521 1523 1524 1526 1527 1529 1530 1532 1533 1535 1537 1539 1540 1542 1544 1545 1547 1548 1550 1551 1552 1554 1555 1556 1557 1558 1559 1560 1561 1562 1563 1564 1565 1566 1567 1568 1569 1569 1570 1571 1571
1517 1518 1519 1521 1522 1524 1525 1527 1529 1530 1531 1533 1535 1537 1539 1540 1542 1544 1545 1547 1549 1550 1551 1552 1553 1554 1556 1557 1557 1558 1559 1560 1561 1562 1564 1565 1566 1566 1567 1568 1569 1570 1570
1515 1516 1517 1519 1520 1522 1523 1525 1526 1528 1529 1531 1533 1535 1537 1539 1540 1542 1544 1545 1547 1548 1549 1551 1552 1553 1554 1555 1556 1557 1558 1559 1560 1561 1562 1563 1564 1565 1566 1566 1567 1568 1569
1512 1514 1515 1517 1518 1520 1521 1523 1524 1526 1527 1529 1531 1533 1535 1537 1538 1540 1542 1543 1545 1546 1548 1549 1550 1551 1552 1553 1554 1555 1556 1557 1558 1559 1560 1561 1562 1563 1564 1565 1566 1566 1567
1510 1512 1513 1515 1516 1518 1519 1521 1522 1524 1526 1527 1529 1531 1533 1535 1536 1538 1539 1541 1542 1544 1545 1546 1548 1549 1550 1551 1552 1553 1554 1555 1556 1557 1558 1559 1560 1561 1562 1563 1563 1564 1565
1508 1509 1511 1512 1514 1516 1517 1519 1520 1522 1523 1525 1527 1529 1530 1532 1534 1535 1537 1538 1540 1541 1543 1544 1545 1546 1547 1549 1550 1551 1551 1552 1553 1554 1556 1557 1557 1558 1559 1560 1561 1561 1562
1505 1507 1508 1510 1512 1513 1515 1516 1518 1519 1521 1523 1525 1526 1528 1530 1530 1531 1533 1535 1537 1538 1540 1541 1542 1543 1545 1546 1547 1548 1549 1550 1551 1551 1552 1553 1554 1555 1556 1557 1558 1559 1559
1503 1504 1506 1507 1509 1511 1512 1514 1516 1517 1519 1521 1523 1524 1525 1526 1527 1528 1530 1532 1534 1535 1537 1538 1539 1540 1541 1542 1543 1544 1546 1547 1548 1548 1549 1550 1551 1552 1553 1554 1555 1555 1556
1500 1502 1503 1504 1506 1507 1509 1511 1513 1514 1516 1518 1520 1521 1523 1524 1525 1525 1527 1529 1530 1532 1533 1534 1536 1537 1538 1539 1540 1541 1542 1543 1544 1545 1546 1547 1547 1548 1549 1550 1551 1552 1553
1498 1499 1500 1502 1503 1504 1506 1507 1509 1511 1513 1514 1516 1518 1519 1520 1521 1523 1523 1525 1527 1528 1530 1531 1532 1533 1535 1536 1537 1538 1539 1540 1541 1542 1543 1543 1544 1544 1545 1546 1547 1548 1549
1495 1497 1498 1499 1500 1501 1502 1504 1505 1507 1509 1511 1512 1514 1515 1517 1518 1519 1520 1521 1523 1524 1526 1527 1528 1530 1531 1532 1533 1534 1535 1536 1537 1538 1539 1539 1540 1540 1541 1542 1543 1544 1544
1492 1493 1494 1496 1497 1498 1499 1501 1502 1503 1505 1507 1508 1510 1511 1513 1515 1516 1517 1518 1519 1520 1521 1523 1524 1526 1527 1528 1529 1530 1531 1532 1533 1533 1534 1534 1535 1536 1536 1537 1538 1539 1540
1489 1491 1492 1493 1494 1495 1496 1497 1498 1500 1502 1503 1504 1506 1507 1509 1511 1512 1514 1515 1515 1516 1517 1518 1520 1521 1522 1523 1524 1525 1526 1527 1528 1529 1529 1530 1530 1531 1532 1533 1534 1534 1535
1487 1488 1489 1490 1491 1492 1493 1494 1495 1497 1498 1499 1501 1502 1503 1505 1507 1508 1510 1512 1513 1512 1513 1514 1516 1517 1518 1519 1520 1521 1521 1522 1523 1524 1524 1525 1525 1526 1527 1528 1529 1529 1530
1484 1485 1486 1487 1488 1489 1490 1491 1492 1493 1495 1495 1497 1498 1500 1501 1503 1505 1506 1508 1509 1510 1509 1510 1512 1513 1513 1514 1515 1516 1517 1517 1518 1519 1519 1520 1520 1521 1522 1523 1524 1524 1525
1482 1482 1483 1484 1485 1486 1487 1488 1489 1490 1491 1492 1493 1494 1496 1498 1499 1501 1502 1503 1505 1506 1506 1506 1508 1509 1510 1510 1511 1511 1512 1512 1513 1514 1514 1514 1515 1516 1517 1517 1518 1519 1520
1479 1480 1480 1481 1482 1483 1484 1485 1486 1486 1487 1488 1489 1490 1492 1494 1495 1496 1498 1499 1500 1502 1503 1502 1503 1504 1505 1506 1506 1507 1507 1508 1508 1509 1509 1509 1510 1511 1511 1512 1513 1514 1514
1476 1477 1478 1478 1479 1480 1481 1482 1482 1483 1484 1484 1485 1487 1488 1490 1491 1492 1493 1495 1496 1497 1498 1499 1499 1500 1500 1501 1501 1502 1502 1503 1503 1504 1504 1504 1505 1505 1506 1506 1507 1508 1509
1474 1474 1475 1475 1476 1477 1478 1478 1479 1479 1480 1481 1482 1483 1484 1485 1487 1488 1489 1490 1492 1492 1493 1494 1494 1495 1496 1496 1497 1497 1497 1497 1498 1499 1499 1499 1499 1500 1500 1501 1501 1502 1503
1471 1472 1472 1473 1474 1474 1475 1475 1475 1476 1477 1478 1479 1480 1481 1482 1483 1484 1485 1486 1487 1488 1489 1489 1489 1490 1490 1491 1492 1492 1492 1492 1492 1493 1493 1494 1494 1494 1495 1495 1496 1496 1497
1469 1469 1470 1470 1471 1471 1472 1472 1473 1473 1473 1474 1475 1476 1477 1478 1479 1480 1481 1482 1483 1483 1484 1484 1485 1485 1485 1487 1487 1488 1488 1487 1487 1488 1488 1488 1489 1488 1489 1490 1491 1491 1491
1467 1467 1467 1468 1468 1468 1469 1469 1469 1470 1470 1470 1471 1472 1473 1474 1475 1476 1477 1478 1478 1479 1480 1481 1480 1480 1481 1482 1483 1483 1483 1482 1482 1483 1483 1482 1483 1483 1484 1485 1485 1486 1486
1465 1465 1465 1465 1465 1466 1466 1466 1466 1466 1467 1467 1467 1468 1468 1469 1470 1471 1472 1472 1473 1474 1475 1475 1476 1476 1477 1478 1478 1479 1478 1478 1478 1478 1478 1477 1477 1478 1479 1480 1481 1481 1481
1462 1462 1462 1463 1463 1463 1464 1464 1464 1463 1463 1463 1464 1464 1465 1465 1466 1467 1468 1468 1468 1469 1470 1471 1471 1471 1472 1473 1473 1474 1473 1473 1472 1472 1473 1473 1472 1473 1473 1474 1475 1476 1476
1460 1460 1460 1460 1460 1460 1461 1461 1461 1461 1460 1460 1461 1461 1462 1462 1463 1463 1464 1464 1464 1465 1465 1466 1466 1466 1467 1467 1468 1468 1468 1468 1467 1467 1467 1468 1467 1468 1467 1468 1469 1470 1470